Location: Rome
(43.2189°N, 75.4531°W)
Time: 15:23:43
(UTC+00:00)

BlueWalker 3 - Visible Passes

Search period start: 08 December 2022 00:00
Search period end: 18 December 2022 00:00
Orbit: 501 x 518 km, 53.2° (Epoch: 08 December)

Date Brightness Start Highest point End Pass type
(mag) Time Alt. Az. Time Alt. Az. Time Alt. Az.
08 Dec 4.1 00:06:50 10° NW 00:08:29 24° WNW 00:08:29 24° WNW visible
08 Dec 3.1 22:09:57 10° NW 22:13:21 27° NNE 22:16:24 12° ENE visible
08 Dec 2.9 23:48:25 10° WNW 23:51:16 45° WNW 23:51:16 45° WNW visible
09 Dec 3.0 21:51:31 10° NW 21:54:57 28° NNE 21:58:21 10° E visible
09 Dec 2.1 23:30:01 10° WNW 23:33:54 70° SW 23:34:13 65° S visible
10 Dec 2.2 23:11:36 10° WNW 23:15:28 65° SW 23:17:27 27° SE visible
11 Dec 2.4 22:53:11 10° WNW 22:57:02 61° SW 23:00:51 10° SE visible
12 Dec 2.6 22:34:45 10° WNW 22:38:36 57° SW 22:42:23 10° SE visible
13 Dec 2.8 22:16:19 10° WNW 22:20:08 53° SW 22:23:56 10° SE visible
14 Dec 3.0 21:57:54 10° WNW 22:01:42 49° SW 22:05:26 10° SSE visible
